Location: *
(33.8649°S, 62.1526°E)
Time: 15:06:21
(UTC+00:00)

Cosmos 2322 Rocket - Pass Details

Date: 17 January 2021
Orbit: 833 x 850 km, 71.0° (Epoch: 03 March)

Event Time Altitude Azimuth Distance (km) Brightness Sun altitude
Rises 21:26:37 0° 199° (SSW) 3,444 6.0 -31.9°
Reaches altitude 10° 21:29:06 10° 197° (SSW) 2,501 5.2 -31.7°
Enters shadow 21:34:00 63° 171° (S) 954 2.5 -31.3°
